Volver al catálogo

FENGYUN 1C DEB

ActivoSSO
NORAD 30762·DEBRIS·🇨🇳 China

Lanzado May 10, 1999 desde Taiyuan Satellite Launch Center

Loading…

Próximos Pases (próximas 24 horas)

TLE

ActualizadoSource: Space-Track

Época: Sep 12, 2026, 11:25 UTC

1 30762U 99025ATY 26255.47634374  .00000346  00000-0  23148-3 0  9995
2 30762  98.8953 242.8680 0196240 257.5845 234.7449 13.98427841994631

Sigue FENGYUN 1C DEB en tiempo real con AllMySat

Download on the App Store